Vertical_Velocity
1 -3 1 3 12 -1 -12 8 12 -3 4 9 9 -5 6 3 -0 3 5 -2 -2 3
1 1 -0 3 4 -4 -3 2 5 -4 2 9 8 19 1 -5 -7 -15 11 1 -0 -0
3 3 -2 8 12 2 3 -2 1 -2 -8 1 3 -3 -2 5 13 18 2 6 -0 -4
5 3 9 -30 20 -2 7 11 11 4 5 -2 -0 -2 1 -13 57 14 8 6 2 2
2 1 -1 16 2 1 1 23 20 3 1 -4 9 10 -10 -25 -6 -6 -1 2 1 3
1 1 -0 -2 -0 2 2 10 20 -8 7 -1 9 18 2 -33 -29 -33 6 -0 2 3
-3 0 5 2 3 6 -0 5 1 3 5 -4 2 4 -4 1 -3 1 9 3 1 -0
-2 7 -13 3 40 0 15 3 -5 5 -5 -2 -2 8 10 11 14 7 4 4 1 1
6 -1 8 6 18 -18 11 57 4 13 4 3 2 6 2 -2 -2 1 0 2 -5 -5
-3 6 -1 7 4 -25 15 -1 8 -0 -0 -1 -0 3 -1 3 -0 -2 -5 -2 -6 -7
1 -1 -2 5 7 8 1 1 4 -11 8 4 -4 2 3 -3 -1 -0 -2 -3 -3 -3
3 4 4 -2 -0 2 0 1 -3 -2 22 6 8 6 7 5 -0 3 0 -2 -0 -3
-1 1 2 1 1 -2 -1 2 11 3 5 25 19 17 30 3 5 1 2 -0 2 -3
1 0 -1 -1 1 -2 -2 3 5 1 5 8 10 13 0 27 -2 1 2 -0 -7 1
Height
2973 2974 2974 2978 2983 2989 2993 2998 3002 3005 3009 3016 3021 3026 3030 3034 3035 3039 3044 3048 3050 3052
2966 2966 2967 2970 2976 2982 2986 2990 2994 2997 3000 3005 3010 3016 3019 3023 3026 3030 3035 3041 3042 3045
2961 2960 2961 2965 2970 2975 2980 2982 2985 2989 2991 2995 3001 3007 3010 3011 3015 3018 3026 3033 3036 3037
2958 2958 2959 2961 2965 2968 2973 2976 2978 2981 2985 2989 2995 2999 3003 3004 2996 3011 3018 3026 3029 3029
2954 2953 2956 2957 2958 2961 2966 2968 2971 2975 2979 2982 2987 2993 2996 3001 3004 3007 3011 3017 3020 3021
2949 2948 2949 2951 2953 2955 2958 2961 2963 2968 2971 2976 2982 2987 2992 2989 2988 2999 3005 3009 3011 3012
2944 2943 2944 2944 2944 2948 2951 2952 2957 2962 2966 2970 2976 2979 2983 2984 2989 2994 2998 3002 3003 3004
2936 2935 2934 2935 2927 2940 2942 2942 2945 2954 2959 2963 2966 2973 2977 2979 2982 2986 2990 2992 2994 2996
2934 2931 2931 2931 2930 2931 2936 2935 2941 2946 2951 2956 2961 2966 2969 2972 2974 2979 2982 2984 2987 2989
2932 2929 2926 2925 2926 2927 2930 2934 2933 2940 2945 2949 2954 2958 2962 2966 2969 2972 2974 2977 2981 2983
2930 2928 2925 2922 2922 2924 2926 2927 2932 2931 2936 2942 2946 2951 2954 2959 2962 2965 2968 2970 2974 2976
2931 2927 2925 2923 2921 2921 2920 2920 2919 2924 2928 2933 2936 2942 2947 2951 2954 2958 2961 2964 2966 2969
2933 2930 2927 2924 2922 2920 2920 2919 2920 2921 2924 2921 2924 2931 2935 2939 2945 2949 2953 2957 2959 2962
2938 2934 2930 2928 2926 2924 2923 2921 2921 2921 2921 2920 2924 2927 2928 2931 2936 2942 2946 2950 2954 2956